Kiana, AK

7:45 PM AKDT on July 25, 2017 (GMT -0800)
Baker Memorial

Weather History for PAIK - August, 2013

Change the Weather History Date:

Wednesday, August 7, 2013

  Actual Average (PASK) Record (PASK)
Temperature  
Mean Temperature 62 °F -  
Max Temperature 61 °F 56 °F 69 °F (2003)
Min Temperature 55 °F 47 °F 42 °F (2011)
Degree Days  
Heating Degree Days 4    
Growing Degree Days 12 (Base 50)    
Moisture  
Dew Point 57 °F    
Average Humidity 85    
Maximum Humidity 100    
Minimum Humidity 70    
Precipitation  
Precipitation 0.00 in - - ()
Sea Level Pressure  
Sea Level Pressure 29.88 in    
Wind  
Wind Speed 5 mph (North)    
Max Wind Speed 8 mph    
Max Gust Speed -    
Visibility 10 miles    
Events Rain    
Averages and records for this station are not official NWS values.
T = Trace of Precipitation, MM = Missing Value Source: NWS Daily Summary

Daily Weather History Graph

Daily Weather History Graph

Search for Another Location

Airport or City:

Trip Planner

Search our weather history database for the weather conditions in past years. The results will help you decide how hot, cold, wet, or windy it might be!

Date:

Astronomy

Aug. 07, 2013 Rise Set
Actual Time 5:41 AM AKDT 11:50 PM AKDT
Civil Twilight 3:47 AM AKDT 1:38 AM AKDT
Nautical Twilight Sun does not set Sun does not set
Astronomical Twilight Sun does not set Sun does not set
Moon 7:47 AM AKDT (8/7) 10:42 PM AKDT (8/7)
Length of Visible Light 21h 50m
Length of Day
18h 08m
New Moon, 1% of the Moon is Illuminated
Aug 7
New Moon
Aug 14
First Quarter
Aug 20
Full
Aug 28
Last Quarter
Sep 5
New

Hourly Weather History & Observations

Time (AKDT) Temp. Dew Point Humidity Pressure Visibility Wind Dir Wind Speed Gust Speed Precip Events Conditions
12:01 AM 59.0 °F 55.9 °F 90% 29.95 in 10.0 mi NNW 4.6 mph - N/A   Overcast
1:01 AM 57.9 °F 55.9 °F 93% 29.94 in 10.0 mi NNW 6.9 mph - N/A Rain Light Rain
2:01 AM 57.9 °F 55.9 °F 93% 29.93 in 10.0 mi North 4.6 mph - N/A Rain Light Rain
3:01 AM 57.9 °F 55.0 °F 90% 29.93 in 10.0 mi North 8.1 mph - N/A   Partly Cloudy
4:01 AM 55.9 °F 55.9 °F 100% 29.94 in 10.0 mi NE 5.8 mph - N/A   Mostly Cloudy
5:01 AM 55.9 °F 55.0 °F 97% 29.92 in 10.0 mi North 8.1 mph - N/A   Scattered Clouds
6:01 AM 55.9 °F 55.0 °F 97% 29.92 in 10.0 mi Calm Calm - N/A   Clear
7:01 AM 55.0 °F 55.0 °F 100% 29.91 in 10.0 mi Calm Calm - N/A   Overcast
8:01 AM 57.0 °F 55.0 °F 93% 29.91 in 10.0 mi East 4.6 mph - N/A   Overcast
9:01 AM 57.0 °F 55.0 °F 93% 29.90 in 10.0 mi Calm Calm - N/A   Overcast
10:01 AM 59.0 °F 55.9 °F 90% 29.90 in 10.0 mi Calm Calm - N/A   Clear
11:01 AM 59.0 °F 55.9 °F 90% 29.90 in 10.0 mi Calm Calm - N/A Rain Light Rain
12:01 PM 62.1 °F 57.9 °F 86% 29.88 in 10.0 mi North 4.6 mph - N/A   Mostly Cloudy
1:01 PM 62.1 °F 57.9 °F 86% 29.88 in 10.0 mi NNW 6.9 mph - N/A   Overcast
2:01 PM 64.0 °F 59.0 °F 84% 29.86 in 10.0 mi NNW 6.9 mph - N/A   Scattered Clouds
3:01 PM 66.0 °F 57.0 °F 73% 29.86 in 10.0 mi North 8.1 mph - N/A   Overcast
4:01 PM 66.0 °F 55.9 °F 70% 29.84 in 10.0 mi NNW 8.1 mph - N/A   Overcast
5:01 PM 68.0 °F 59.0 °F 73% 29.84 in 10.0 mi East 6.9 mph - N/A   Mostly Cloudy
6:01 PM 68.0 °F 57.9 °F 70% 29.83 in 10.0 mi East 3.5 mph - N/A   Mostly Cloudy
7:01 PM 66.9 °F 57.0 °F 70% 29.82 in 10.0 mi NE 3.5 mph - N/A   Partly Cloudy
8:01 PM 66.0 °F 57.0 °F 73% 29.81 in 10.0 mi Calm Calm - N/A   Clear
9:01 PM 66.0 °F 57.9 °F 75% 29.80 in 10.0 mi Calm Calm - N/A   Mostly Cloudy
10:01 PM 66.0 °F 57.0 °F 73% 29.79 in 10.0 mi North 3.5 mph - N/A   Overcast
11:01 PM 64.0 °F 59.0 °F 84% 29.78 in 10.0 mi North 5.8 mph - N/A   Mostly Cloudy